Temperature
18 15 14 14 13 16 16 16 16 15 13 11 10 11 12 13 11 10 11 12 12 13 13 12 11 10 9 8 7 7 7 6 5 5 4 3 3 2 1 1 0 -1 -1 -2
15 15 16 16 16 16 17 16 16 15 13 12 11 11 12 12 11 11 11 12 13 14 13 12 11 10 9 9 8 8 7 6 6 5 4 3 3 2 1 1 0 -1 -2 -2
17 16 16 17 16 17 16 16 15 15 14 12 12 11 12 13 12 12 13 14 14 15 14 14 12 11 10 10 9 9 8 7 6 5 4 3 3 2 1 1 -0 -1 -2 -2
16 16 16 16 16 17 15 15 15 15 13 11 13 12 13 13 12 11 13 14 15 16 15 14 13 12 12 12 10 9 8 7 6 5 4 3 3 2 1 1 -0 -1 -2 -2
16 15 15 15 16 16 15 15 14 14 13 11 11 11 13 13 13 12 13 16 18 18 17 16 15 14 13 12 11 10 8 7 6 4 4 3 3 2 1 0 -0 -1 -2 -3
15 15 15 15 15 15 14 14 13 11 10 11 11 11 12 12 13 14 15 18 20 19 18 17 15 14 13 12 11 10 8 7 6 4 3 3 3 2 1 0 -0 -1 -2 -3
15 15 15 15 15 14 14 13 13 13 12 12 12 12 13 14 12 13 16 20 21 20 19 17 16 15 14 13 12 11 9 7 6 4 3 3 2 2 1 0 -1 -1 -2 -3
15 14 14 14 14 13 13 13 13 14 12 12 13 12 14 14 14 16 18 20 20 20 19 18 17 16 15 14 13 11 10 8 6 5 4 3 2 2 1 0 -1 -1 -2 -3
14 14 14 13 14 14 14 12 12 11 12 11 11 11 12 14 14 14 16 17 19 20 19 18 17 16 15 14 13 12 10 8 6 5 3 3 2 2 1 -0 -1 -2 -3 -3
15 14 14 13 13 13 13 12 10 11 12 11 11 11 13 15 14 13 12 15 19 20 19 18 17 17 16 14 13 11 10 8 7 5 3 3 2 1 0 -0 -1 -2 -3 -4
14 13 13 12 11 12 11 12 11 10 10 10 10 13 13 14 14 13 14 17 19 20 19 19 18 17 16 14 13 11 10 8 6 4 3 2 2 1 0 -0 -1 -2 -3 -4
12 11 11 12 12 11 11 11 10 11 11 9 8 13 14 13 12 13 15 17 19 19 19 19 18 17 16 14 13 12 10 8 6 4 3 2 2 1 0 -0 -1 -2 -3 -4
12 11 12 13 13 12 11 11 10 11 10 8 9 14 14 13 14 15 16 18 19 19 19 18 17 17 16 15 13 12 10 8 6 4 3 2 2 1 0 -1 -2 -2 -3 -4
11 10 11 13 13 12 12 12 11 10 10 9 10 14 16 16 15 15 17 18 18 18 18 17 17 17 16 15 13 12 10 8 6 4 3 2 2 1 -0 -1 -2 -2 -3 -4
9 9 9 10 11 11 11 12 11 11 12 12 13 14 16 17 15 15 16 17 17 17 17 17 17 17 16 15 14 12 10 8 6 4 3 2 2 0 -1 -1 -2 -3 -3 -4
7 8 9 10 11 10 10 11 12 12 11 12 13 14 16 16 15 15 15 15 16 17 17 17 17 16 16 15 14 13 11 9 6 4 3 2 1 0 -1 -1 -2 -2 -3 -4
6 7 8 8 9 10 10 12 12 11 10 11 12 14 14 13 12 13 15 16 16 17 17 17 17 16 16 15 14 13 12 9 7 5 3 2 1 0 -1 -1 -2 -2 -3 -4
7 7 7 6 9 9 13 13 12 12 12 11 12 13 12 12 14 15 16 16 17 17 17 17 16 16 15 15 14 13 11 9 7 5 3 2 1 0 -1 -1 -2 -2 -3 -3
7 8 7 6 7 8 10 12 12 11 11 12 12 13 13 13 13 16 19 18 17 17 16 16 15 15 15 14 13 12 11 9 7 5 4 3 1 0 -1 -1 -1 -2 -3 -3
6 6 6 5 6 8 11 13 13 13 12 14 12 11 12 12 11 14 17 17 16 16 15 15 14 14 14 13 12 11 10 9 8 6 5 3 2 0 -0 -1 -1 -2 -3 -3
5 5 5 5 5 8 10 11 12 13 14 15 15 15 14 12 13 15 15 15 15 15 14 14 14 13 13 12 12 11 10 9 8 6 4 3 1 0 -0 -1 -2 -2 -3 -3
6 4 4 4 5 7 10 10 11 13 15 15 15 15 14 14 14 14 14 14 14 14 13 13 13 13 13 12 11 10 10 9 7 5 4 3 1 0 -1 -1 -2 -2 -3 -3
6 7 7 7 9 11 12 12 14 14 14 15 14 14 13 13 13 13 13 13 13 12 12 12 12 12 12 11 11 10 10 8 6 5 4 2 1 0 -1 -1 -2 -2 -3 -3
7 7 7 6 7 10 12 13 14 14 14 14 13 13 12 12 12 12 12 12 11 11 11 11 11 11 11 11 10 10 8 7 5 4 3 2 1 0 -1 -1 -2 -2 -2 -3
9 8 7 8 8 10 12 13 13 13 13 12 12 12 11 11 11 11 10 10 10 10 10 10 10 10 10 10 10 9 7 6 5 3 2 1 1 -0 -1 -1 -1 -2 -2 -3
9 9 9 10 11 10 11 12 11 11 11 11 10 10 10 10 9 9 9 9 9 9 9 9 9 9 9 9 9 8 7 6 4 3 1 1 0 -0 -1 -1 -2 -2 -3 -3
Wind_Speed
2 3 4 8 9 6 4 5 6 6 5 8 12 18 20 10 11 15 14 14 17 21 17 13 14 14 14 15 15 16 13 11 8 5 4 3 3 3 5 8 9 10 8 7
4 4 6 4 5 5 3 4 5 4 3 7 8 14 16 10 10 14 16 18 20 17 13 14 14 15 18 19 18 17 16 14 12 7 4 3 3 3 5 6 8 9 8 7
5 5 2 3 4 4 3 4 4 4 3 4 6 11 10 6 6 9 11 13 14 19 18 16 17 18 18 20 21 19 17 15 12 9 5 3 3 1 2 3 4 7 7 7
4 3 3 3 4 4 4 2 1 1 2 5 2 6 10 7 7 9 13 13 16 17 16 16 17 19 21 21 18 17 17 15 13 11 9 8 6 6 6 4 4 6 7 7
5 4 5 6 5 5 5 2 1 0 1 4 3 4 11 5 8 13 14 15 18 16 16 16 19 21 20 17 17 16 16 15 13 12 12 9 7 6 4 4 5 5 6 8
5 3 4 5 1 1 3 3 3 4 4 4 6 7 9 7 10 10 10 12 15 15 14 15 13 13 14 14 15 15 17 16 14 13 12 11 10 9 7 6 6 5 4 6
4 4 3 3 2 1 3 4 4 4 2 7 4 6 12 12 11 11 12 13 14 13 12 12 13 15 16 18 18 17 18 16 15 14 13 12 11 10 10 8 7 6 4 4
4 7 5 4 7 6 5 7 6 5 6 6 5 8 11 11 10 11 12 10 10 11 11 13 15 16 17 19 19 19 20 16 16 15 14 11 11 8 7 8 7 7 6 6
6 6 1 3 3 5 5 6 7 5 3 6 8 9 12 8 8 8 10 9 12 12 12 13 13 15 17 19 21 22 21 17 17 16 13 11 11 10 9 8 8 6 5 7
6 6 4 1 1 3 3 4 5 4 4 7 8 8 7 9 10 10 11 12 14 12 11 11 12 15 16 17 17 17 18 18 15 15 14 12 11 10 9 8 8 8 7 9
5 5 4 1 7 8 6 5 6 4 4 6 6 9 8 10 10 12 15 15 14 13 14 14 13 13 12 12 14 17 17 15 14 15 13 11 11 10 9 8 9 8 7 8
5 4 6 9 5 5 8 9 9 6 7 6 5 11 10 11 11 11 13 13 12 12 11 11 11 10 12 15 15 17 17 17 16 15 13 13 10 10 9 9 9 7 8 7
5 4 4 7 2 2 5 6 7 5 3 5 7 13 6 8 9 8 10 11 11 11 11 9 9 12 15 16 16 17 18 17 15 14 14 13 11 11 11 10 9 8 8 7
5 6 8 10 8 6 6 6 8 8 6 9 14 22 22 20 17 13 12 12 11 11 11 10 11 13 14 15 16 17 17 16 15 15 14 14 14 13 11 9 9 8 8 7
5 6 8 10 11 7 9 13 11 15 15 16 19 23 30 26 15 10 10 11 12 12 11 12 13 13 12 13 15 16 16 16 16 16 16 15 13 11 9 9 9 8 8 8
5 5 4 7 9 10 10 18 21 18 15 19 25 27 29 21 12 11 12 12 12 12 12 13 13 12 14 16 17 17 17 17 16 17 16 13 11 11 11 10 10 9 8 7
7 7 4 7 6 6 9 15 17 10 10 11 17 20 18 14 13 11 11 11 12 13 13 13 13 14 15 17 17 19 18 16 17 17 15 13 13 13 12 11 10 10 8 7
10 8 5 4 1 10 11 6 8 10 13 15 16 18 15 13 11 11 12 13 14 13 12 12 11 12 13 13 14 14 14 16 17 16 15 14 14 13 12 11 11 10 8 7
7 8 5 4 6 11 10 10 7 8 11 12 17 20 15 8 7 9 9 7 11 11 11 11 10 10 9 11 12 13 15 16 17 18 17 16 15 14 13 13 13 10 8 8
3 4 5 5 6 10 10 5 1 1 9 8 5 9 7 2 5 8 8 7 8 10 9 9 8 7 8 9 11 14 16 18 20 20 18 17 16 16 15 15 12 9 8 8
4 4 7 9 9 12 10 4 3 5 9 5 2 4 4 5 9 10 11 11 11 12 13 11 9 9 9 9 13 16 17 21 19 15 15 15 16 16 15 12 11 9 8 7
11 9 9 8 8 12 8 7 9 10 5 6 8 7 8 10 12 13 13 13 14 14 13 12 10 11 9 10 14 17 20 17 13 14 16 16 16 14 13 12 11 9 9 8
9 10 8 13 13 7 6 10 8 6 9 11 10 12 12 12 14 15 13 13 13 13 13 11 10 12 10 11 15 19 17 13 15 16 17 16 16 14 13 13 12 9 8 7
8 7 7 9 12 13 12 10 12 13 14 13 13 14 13 15 17 16 15 13 12 12 12 10 10 12 13 12 16 18 12 13 16 17 17 15 15 15 13 11 11 9 9 8
9 7 9 14 11 11 11 11 11 11 11 13 15 14 13 14 15 14 12 12 11 11 11 10 10 13 15 12 14 14 12 15 17 16 15 15 14 14 13 12 11 11 10 9
12 14 19 24 17 15 15 13 15 16 15 15 14 13 11 10 10 10 10 10 10 11 11 11 11 13 14 11 12 12 14 16 17 15 15 13 12 12 11 11 9 15 13 15
Wind_Direction
96 85 219 222 207 222 232 236 262 262 190 190 238 262 273 239 216 231 229 223 225 229 225 210 202 192 183 182 182 181 178 176 165 158 166 178 206 220 241 247 230 219 225 242
41 255 229 199 207 233 247 278 278 286 196 208 270 276 272 238 214 223 226 226 228 232 224 212 199 191 190 188 187 185 184 180 179 174 164 167 171 199 227 232 216 222 233 250
227 240 204 206 230 243 270 244 254 278 340 264 305 301 284 260 222 233 229 227 228 227 225 214 204 199 195 195 192 190 187 183 181 170 152 145 141 202 219 217 224 235 244 254
243 238 209 217 239 200 254 214 209 288 342 294 224 289 289 270 264 251 240 233 234 230 225 215 207 203 202 200 192 188 183 182 179 170 170 170 184 201 214 210 218 242 250 254
261 208 210 227 235 200 221 183 219 227 200 302 241 221 281 283 263 257 245 235 236 231 221 217 210 207 204 195 189 185 181 182 179 177 178 178 192 203 211 217 231 239 247 254
245 219 213 218 182 113 124 59 51 51 72 287 226 190 273 240 222 243 245 234 232 229 221 221 212 198 193 185 184 182 182 185 181 181 182 185 192 199 207 219 229 235 240 254
289 262 231 158 158 45 111 85 347 325 328 255 233 212 250 248 228 225 231 233 229 223 215 213 202 195 191 187 188 187 186 188 185 186 189 192 193 196 206 213 221 225 234 241
286 286 228 203 196 191 191 158 181 240 253 285 286 237 253 257 254 239 240 243 237 225 215 212 206 199 194 191 190 189 191 190 187 191 196 194 192 195 206 209 209 217 224 235
216 264 213 187 198 188 196 209 185 164 256 268 267 278 296 270 266 243 238 242 241 232 222 217 206 199 195 193 194 193 192 191 191 194 193 194 193 196 202 205 209 219 226 242
190 257 270 221 19 254 217 158 117 158 238 264 280 272 253 275 260 252 244 239 242 241 234 224 211 205 200 198 194 192 192 193 191 191 193 198 196 198 199 200 211 220 230 241
182 220 277 294 215 207 170 195 192 188 198 204 265 265 232 240 252 249 245 241 241 236 231 225 218 208 198 189 190 193 194 192 192 193 194 192 192 195 197 204 214 221 229 235
179 156 256 253 239 201 190 201 169 187 239 213 235 267 257 250 263 257 258 256 252 245 238 228 213 195 193 195 195 196 196 197 196 193 191 194 190 190 198 209 217 218 227 233
149 143 303 321 298 239 235 225 198 186 189 213 232 268 268 278 284 273 264 272 270 264 255 235 210 203 204 202 200 200 200 199 194 189 191 193 194 196 204 211 216 217 223 233
127 182 202 228 238 202 223 231 204 188 218 241 238 260 275 278 281 281 274 270 269 262 251 235 224 219 213 206 203 202 202 197 191 190 192 197 201 202 204 206 210 215 221 234
146 225 240 255 263 244 242 250 231 219 226 241 257 259 270 276 283 275 268 274 275 267 251 236 231 226 215 209 207 205 202 196 192 192 197 203 199 195 196 202 209 215 224 239
172 220 259 272 264 249 253 257 252 242 237 243 260 269 268 278 287 279 275 274 272 267 257 246 238 230 220 215 211 206 204 198 192 195 200 197 189 191 198 204 210 217 228 240
190 191 219 266 288 325 267 243 241 227 216 216 246 258 273 283 279 271 269 267 262 265 265 257 245 234 228 219 211 208 203 193 193 198 196 191 189 195 201 206 211 220 228 238
173 172 199 262 322 242 245 245 227 234 247 229 245 261 269 268 281 274 262 262 269 270 269 266 256 244 233 220 210 204 193 193 196 198 195 191 190 195 198 204 216 222 224 234
175 169 193 205 247 270 287 276 223 221 273 243 244 263 276 303 313 297 276 246 249 262 268 269 263 251 237 216 200 190 193 196 199 200 198 194 190 192 197 208 218 219 220 234
96 140 177 195 226 253 253 264 165 132 287 285 241 265 295 34 324 288 298 309 290 285 281 279 277 257 237 212 184 190 198 201 206 204 199 193 190 193 200 210 214 213 216 231
162 188 202 218 235 260 257 253 147 216 253 306 334 279 265 229 243 266 294 298 290 289 286 283 272 256 241 201 185 199 205 212 210 197 190 189 191 195 200 204 208 209 215 227
185 185 202 193 216 255 235 159 197 232 299 312 310 301 292 279 277 282 286 286 288 289 288 281 268 260 241 197 194 208 216 213 192 186 188 190 191 192 196 199 204 207 211 222
208 203 204 203 222 252 194 211 246 288 289 289 292 297 298 291 288 290 288 286 287 284 283 276 262 264 248 209 204 218 220 195 183 187 191 191 189 192 192 194 199 202 206 216
237 220 227 245 254 260 264 255 261 263 265 276 284 289 292 288 288 291 291 290 289 285 282 279 269 262 258 228 217 224 210 184 185 191 193 190 189 192 193 195 197 200 203 209
231 231 246 260 265 277 262 260 268 278 285 288 289 289 288 286 289 289 293 292 290 288 286 281 267 263 262 244 226 220 198 185 190 194 193 191 192 190 193 198 201 202 204 202
232 243 257 267 271 273 280 280 285 288 289 292 297 301 299 295 295 301 300 296 296 297 296 294 284 275 272 257 236 214 197 191 192 195 194 192 190 189 191 193 203 218 213 222
Height
1565 1570 1573 1571 1571 1569 1568 1570 1570 1565 1563 1568 1567 1558 1546 1545 1546 1544 1543 1543 1542 1541 1544 1547 1549 1550 1551 1551 1552 1552 1553 1554 1555 1556 1556 1554 1553 1550 1548 1545 1543 1541 1538 1536
1570 1571 1565 1564 1565 1566 1566 1568 1567 1564 1563 1565 1564 1556 1540 1536 1536 1534 1534 1534 1534 1535 1537 1540 1542 1543 1543 1543 1544 1545 1545 1547 1549 1550 1550 1549 1548 1546 1544 1541 1539 1537 1534 1531
1567 1565 1563 1564 1565 1566 1565 1566 1566 1565 1563 1563 1565 1555 1538 1530 1529 1528 1527 1527 1528 1528 1529 1532 1534 1534 1535 1535 1535 1536 1538 1540 1542 1544 1544 1543 1542 1540 1539 1537 1535 1532 1530 1527
1564 1563 1563 1564 1564 1563 1567 1563 1563 1564 1568 1572 1566 1570 1541 1531 1528 1524 1521 1520 1520 1521 1523 1524 1526 1526 1526 1527 1529 1530 1532 1534 1536 1537 1537 1537 1536 1535 1534 1532 1530 1528 1525 1522
1564 1562 1563 1564 1562 1560 1562 1562 1563 1564 1567 1572 1568 1570 1545 1531 1528 1519 1513 1512 1512 1514 1516 1517 1518 1519 1520 1522 1522 1524 1525 1526 1528 1530 1531 1531 1530 1529 1528 1526 1525 1523 1520 1517
1561 1560 1560 1560 1560 1560 1561 1563 1566 1571 1574 1576 1563 1568 1551 1531 1519 1511 1506 1505 1506 1508 1510 1511 1512 1514 1514 1515 1515 1516 1517 1519 1521 1522 1524 1524 1524 1523 1522 1520 1519 1517 1515 1513
1562 1560 1558 1558 1560 1562 1563 1570 1577 1573 1578 1570 1555 1557 1538 1512 1507 1503 1500 1500 1501 1503 1504 1505 1506 1506 1506 1506 1507 1508 1509 1511 1513 1515 1517 1518 1518 1517 1516 1515 1514 1512 1510 1508
1569 1567 1558 1557 1558 1562 1564 1567 1576 1577 1579 1568 1552 1549 1522 1502 1499 1497 1497 1497 1497 1497 1498 1499 1499 1499 1499 1499 1500 1500 1501 1503 1505 1507 1510 1511 1511 1510 1510 1509 1508 1507 1505 1502
1567 1564 1556 1555 1555 1557 1559 1564 1563 1572 1571 1573 1557 1539 1518 1498 1495 1493 1492 1492 1492 1492 1492 1492 1493 1493 1492 1492 1492 1493 1494 1496 1498 1500 1503 1504 1505 1504 1504 1503 1502 1501 1499 1496
1558 1564 1556 1555 1556 1555 1556 1559 1568 1571 1573 1572 1557 1544 1524 1500 1495 1492 1489 1487 1485 1486 1486 1486 1486 1486 1486 1486 1486 1487 1488 1489 1491 1494 1496 1497 1498 1498 1497 1497 1496 1495 1493 1491
1556 1563 1559 1558 1558 1554 1558 1559 1559 1565 1568 1570 1563 1534 1504 1497 1491 1489 1484 1481 1480 1480 1480 1480 1480 1480 1480 1480 1480 1479 1480 1482 1484 1486 1488 1490 1491 1491 1491 1490 1490 1489 1488 1486
1556 1564 1565 1556 1549 1549 1551 1551 1556 1562 1558 1562 1563 1525 1494 1490 1485 1484 1480 1478 1477 1477 1476 1475 1475 1474 1473 1472 1472 1472 1472 1474 1476 1479 1481 1483 1484 1484 1484 1484 1484 1484 1482 1480
1556 1563 1565 1555 1553 1551 1549 1547 1547 1548 1552 1557 1554 1516 1489 1485 1481 1479 1478 1476 1474 1473 1472 1471 1469 1467 1466 1465 1464 1464 1465 1466 1469 1471 1473 1475 1476 1477 1478 1478 1478 1478 1476 1474
1553 1559 1560 1555 1547 1544 1545 1542 1542 1545 1549 1545 1532 1505 1487 1482 1479 1477 1476 1474 1471 1468 1466 1464 1462 1461 1459 1458 1457 1457 1457 1458 1461 1463 1465 1467 1469 1470 1472 1472 1472 1472 1470 1468
1552 1557 1553 1547 1541 1542 1540 1536 1535 1535 1528 1526 1507 1500 1482 1474 1473 1472 1470 1468 1465 1461 1459 1457 1456 1454 1453 1451 1450 1449 1449 1450 1452 1454 1456 1459 1462 1464 1465 1465 1466 1465 1464 1462
1551 1553 1549 1544 1536 1537 1536 1527 1520 1519 1517 1511 1500 1489 1472 1469 1470 1467 1464 1462 1458 1455 1453 1452 1450 1448 1446 1445 1443 1442 1441 1441 1443 1445 1447 1452 1455 1457 1458 1459 1459 1459 1458 1456
1550 1552 1551 1548 1538 1533 1531 1511 1505 1506 1502 1500 1495 1478 1467 1467 1465 1463 1459 1457 1454 1451 1449 1447 1445 1443 1441 1439 1437 1434 1433 1434 1435 1436 1440 1444 1447 1449 1451 1452 1452 1452 1451 1450
1542 1546 1549 1549 1538 1538 1507 1494 1494 1494 1488 1486 1480 1470 1465 1463 1461 1458 1455 1453 1450 1448 1447 1444 1442 1439 1436 1433 1430 1428 1426 1425 1426 1428 1431 1435 1438 1441 1443 1444 1445 1445 1445 1444
1533 1537 1543 1549 1544 1524 1507 1492 1490 1490 1484 1473 1471 1465 1462 1462 1459 1454 1452 1451 1449 1447 1445 1442 1438 1435 1431 1427 1423 1421 1418 1417 1417 1418 1421 1425 1429 1432 1434 1436 1437 1438 1438 1437
1533 1534 1541 1545 1542 1526 1499 1487 1484 1486 1485 1466 1465 1464 1463 1463 1465 1456 1452 1450 1447 1444 1441 1437 1432 1428 1424 1420 1416 1413 1410 1408 1407 1408 1412 1416 1420 1423 1426 1428 1430 1431 1431 1431
1536 1537 1539 1537 1534 1511 1491 1484 1485 1491 1478 1465 1463 1462 1461 1460 1458 1452 1448 1445 1442 1438 1434 1430 1425 1420 1416 1412 1408 1404 1401 1398 1399 1402 1405 1408 1412 1415 1418 1421 1423 1424 1424 1424
1522 1531 1533 1530 1531 1510 1480 1483 1483 1474 1466 1464 1462 1460 1457 1454 1449 1445 1441 1437 1434 1430 1426 1421 1416 1412 1408 1404 1399 1394 1391 1391 1392 1393 1395 1399 1403 1406 1409 1412 1415 1417 1418 1418
1511 1506 1504 1503 1492 1479 1476 1474 1471 1469 1466 1462 1459 1456 1453 1448 1442 1438 1433 1429 1425 1421 1417 1413 1408 1403 1399 1394 1389 1385 1383 1383 1382 1383 1385 1388 1393 1397 1401 1404 1407 1409 1411 1411
1497 1494 1495 1490 1480 1474 1471 1469 1467 1465 1461 1458 1455 1452 1448 1442 1436 1431 1426 1421 1417 1413 1409 1404 1399 1394 1389 1385 1380 1376 1375 1374 1373 1373 1375 1379 1383 1387 1392 1396 1400 1402 1404 1405
1489 1488 1485 1477 1472 1468 1464 1463 1461 1458 1456 1452 1449 1445 1440 1434 1428 1424 1419 1414 1410 1405 1401 1397 1391 1385 1380 1376 1371 1368 1366 1365 1364 1364 1367 1370 1374 1379 1384 1388 1392 1395 1398 1399
1478 1478 1475 1465 1464 1462 1457 1457 1455 1451 1447 1444 1440 1435 1432 1428 1422 1417 1413 1408 1403 1398 1393 1388 1382 1376 1371 1366 1362 1359 1357 1355 1355 1355 1357 1361 1365 1370 1376 1381 1385 1389 1392 1393